Powrót do katalogu

FENGYUN 1C DEB

AktywnyPO
NORAD 30676·DEBRIS·🇨🇳 China

Wystrzelony May 10, 1999 z Taiyuan Satellite Launch Center

Loading…

Następne Przeloty (najbliższe 24 godziny)

TLE

ŚwieżeSource: Space-Track

Epoka: Sep 14, 2026, 05:03 UTC

1 30676U 99025AQJ 26257.21087484  .00000606  00000-0  30248-3 0  9995
2 30676  98.2916  52.6074 0468122  20.4946 341.4319 13.74983126977081

Śledź FENGYUN 1C DEB w czasie rzeczywistym z AllMySat

Download on the App Store